OIFS  Shahrekord Airport

Add Bookmark

Shahrekord, Iran

Status IATA
Operational CQD
Latitude Longitude
32° 17' 49" N 50° 50' 31" E
32.297199 50.842201
Local (DST + 5) UTC (GMT + 4)
Sep 18, 2014 02:06 Sep 17, 2014 21:36
Sunrise-Sunset Local UTC
Begin Civil Twilight 06:26 01:56
Sunrise 06:51 02:21
Sunset 07:10 14:40
End Civil Twilight 07:34 15:04

Current Weather

METAR Observed VFR
OIFS 172100Z 00000KT CAVOK 12/M02 Q1021 Wed, Sep 17, 2014 @ 21:00 UTC
(36 Minutes ago)
Visual Flight Rules
Wind Visibility Clouds Conditions
Calm 10 km or more
  • Clear skies
  • No significant weather
Temperatures Readings Precipitation
Current Temp 12°C (54°F)
Dewpoint -2°C (28°F)
Humidity 38%
Altimeter 30.15"Hg
Sea Level Pressure 1021mb
Field Elevation 6817.59'
None Recorded

Additional weather within a 185.2km radius of OIFS

Map ICAO Location
OIFM 108km E (062°)
OIAI 151.5km W (258°)

24 Hour Weather History

Loading
-

24 Hour Weather Graphs

Loading
-

CheckWX.com is intended as a tool to help pilots better visualize weather data. It is not intended as a substitute for an official weather briefing obtained from a Flight Service Station. CheckWX.com does not meet the FAA requirements for an official pre-flight weather briefing. Therefore, it's important that pilots still call and obtain an official FSS pre-flight weather briefing.